Showing default

YAOGAN 29, 41038

Orbit data source: Space-Track

YAOGAN 29, 41038 is a payload satellite owned by PLA GAD (CN) in SSO that was launched on Thu, 26 Nov 2015 UTC via a CHANG ZHENG 4C launch vehicle from the Taiyaun Space Center, China (TSC). Payload-class satellites include a variety of spacecraft equipped with specific instruments for various scientific and technological missions. These include communications satellites like Starlink; space stations such as the ISS; scientific satellites like the Hubble; Earth observation satellites from companies like Planet Labs, Umbra, and HawkEye 360; GPS; miniature CubeSats for education and research; and military/defense satellites.

Loading next visibility...
Identifier
41038, 2015-069A
Orbit
SSO
Country
Flag of CNCN / PRC
Related business
Manufacturer
SAST
Mission
Operational Defense Radar Imaging
Bus & Motor
JB-9, Unknown motor
Mass
1,040 kg wet, 1,040 kg dry
Launch date (UTC)
2015-11-26 (10 years ago)
Launch vehicle
CHANG ZHENG 4C
Launch site
Taiyaun Space Center, China (TSC)
Object type
Payload
Rocket body
Debris
Shape & HBR
Box + 2 Pan, 2.5 m
Radar Cross Section
4.795 m², Large (>1 m²)

Expand to show TLE details & history
Last TLE update: 4 hours ago

TLE from 4 hours ago
0 YAOGAN 29
1 41038U 15069A   26124.52539429  .00000831  00000-0  10882-3 0  9995
2 41038  98.0057 153.0839 0002280 124.8086 235.3342 14.83051736564158
Epoch: 2026-05-04T12:36Z
TLE epoch observation values (Epoch: 2026-05-04T12:36:34.066Z)
Latitude
-0.00004°
Longitude
101.52863°
Altitude
623.638 km
Speed
7.546 km/s
True Right ascension
10h 12m 20s
True Declination
0° 00' 00"
Sunlit
Object was in daylight at epoch
Visualization orbit readout
Latitude
Unknown
Longitude
Unknown
Altitude
Unknown
Speed
Unknown
Apparent Right ascension
Unknown
Apparent Declination
Unknown
Sunlit
N/A
Visualization observer readout
Local Sidereal Time
00:41:41
Azimuth
Unknown
Elevation
Unknown
Doppler factor
Unknown
Orbital elements
Apogee altitude
618.344 km
Perigee altitude
615.155 km
Semi-major axis
6,994.886 km
Eccentricity
0.00023
Inclination
98.0057°
RAAN
153.0839°
Arg. of periapsis
124.8086°
True anomaly
235.31271°
Mean anomaly
235.3342°
Eccentric anomaly
235.32346°
Mean motion
3.70999 °/min
Orbital period
97.04 mins
BSTAR
0.00010882
Loading maneuver chart data...
Computing Atmospheric mass density...
Loading historical data...
Loading historical data...
Loading historical data...
Loading historical data...
Loading historical data...
Loading historical data...
Loading historical data...
Other satellites on launch #69 in the year 2015 (2015-11-26 UTC)

Documentation

Showing up to 5 results
|